Location: Kunchanapalle
(16.4623°N, 80.6176°E)
Time: 09:54:09
(UTC+00:00)

Cosmos 1455 - Pass Details

Date: 13 August 2020
Orbit: 498 x 523 km, 82.5° (Epoch: 18 September)

Event Time Altitude Azimuth Distance (km) Brightness Sun altitude
Exits shadow 23:11:34 26° 205° (SSW) 1,057 3.4 -16.8°
Maximum altitude 23:13:33 57° 275° (W) 617 2.2 -16.3°
Drops below altitude 10° 23:17:20 10° 354° (N) 1,755 5.1 -15.5°
Sets 23:19:30 0° 359° (N) 2,645 6.1 -15.0°
